Location: Praha
(50.0830°N, 14.4670°E)
Time: 10:31:57
(UTC+02:00)

ISS - Pass Details

Date: 31 May 2019
Orbit: 408 x 418 km, 51.6° (Epoch: 16 June)

Event Time Altitude Azimuth Distance (km) Brightness Sun altitude
Rises 23:17:33 0° 283° (WNW) 2,358 0.6 -14.5°
Reaches altitude 10° 23:20:10 10° 262° (W) 1,493 -0.8 -14.6°
Maximum altitude 23:22:22 17° 220° (SW) 1,159 -1.8 -14.8°
Enters shadow 23:22:41 16° 213° (SSW) 1,167 -1.8 -14.8°
